FW7889 Weather Reports


time (UTC)temp
F
wind
direction
speed
knots
gust
knots
rain 1hr
in
rain 24hr
in
rain mn
in
humidity
%
barometer
mb
20260904155607 70 72 2.6 2.6 0.00 0.00 0.00 77 1068.3
20260904154607 70 41 1.7 2.6 0.00 0.00 0.00 75 1068.4
20260904153608 70 294 0.9 0.9 0.00 0.00 0.00 77 1068.5
20260904152605 70 324 3.5 5.2 0.00 0.00 0.00 76 1068.5
20260904151601 69 131 1.7 2.6 0.00 0.00 0.00 80 1068.7
20260904150601 68 324 2.6 2.6 0.00 0.00 0.00 82 1068.9
20260904145600 68 336 1.7 4.3 0.00 0.00 0.00 84 1068.8
20260904144557 68 316 0.9 1.7 0.00 0.00 0.00 85 1068.8
20260904143555 68 326 1.7 1.7 0.00 0.00 0.00 86 1069.1
20260904142553 68 336 0.9 0.9 0.00 0.00 0.00 85 1069.0
20260904141549 68 338 0.0 0.0 0.00 0.00 0.00 88 1069.0
20260904140545 66 310 1.7 1.7 0.00 0.00 0.00 89 1068.8
20260904135544 65 292 0.0 0.0 0.00 0.00 0.00 93 1069.0
20260904134542 64 304 1.7 1.7 0.00 0.00 0.00 99 1068.5
20260904133537 63 323 0.9 0.9 0.00 0.00 0.00 99 1068.9
20260904132533 63 291 0.0 0.0 0.00 0.00 0.00 99 1068.7
20260904131533 63 293 0.0 0.9 0.00 0.00 0.00 99 1068.8
20260904130528 62 158 0.9 0.9 0.00 0.00 0.00 99 1068.8
20260904125525 62 86 0.9 0.9 0.00 0.00 0.00 99 1068.9
20260904124521 61 250 0.0 0.0 0.00 0.00 0.00 99 1069.0
20260904123516 61 277 0.0 0.0 0.00 0.00 0.00 99 1069.1
20260904122513 60 277 0.0 0.0 0.00 0.00 0.00 99 1068.8
20260904121509 60 291 0.0 0.0 0.00 0.00 0.00 99 1068.8
20260904120506 58 288 0.0 0.0 0.00 0.00 0.00 99 1068.9
20260904115503 57 288 0.0 0.0 0.00 0.00 0.00 99 1068.9
20260904114503 56 288 0.0 0.0 0.00 0.00 0.00 99 1068.7
20260904113504 55 288 0.0 0.0 0.00 0.00 0.00 99 1068.8
20260904112459 55 289 0.0 0.0 0.00 0.00 0.00 99 1068.9
20260904111456 54 288 0.0 0.0 0.00 0.00 0.00 99 1068.8
20260904110451 53 288 0.0 0.0 0.00 0.00 0.00 99 1068.7
20260904105447 53 288 0.0 0.0 0.00 0.00 0.00 99 1068.4
20260904104441 52 288 0.0 0.0 0.00 0.00 0.00 99 1068.2
20260904103439 52 298 0.0 0.0 0.00 0.00 0.00 99 1068.3
20260904102437 52 288 0.0 0.0 0.00 0.00 0.00 99 1068.1
20260904101435 51 289 0.0 0.0 0.00 0.00 0.00 99 1068.1
20260904100432 51 291 0.0 0.0 0.00 0.00 0.00 99 1068.1
20260904095432 52 288 0.0 0.0 0.00 0.00 0.00 99 1068.0
20260904094428 52 288 0.0 0.0 0.00 0.00 0.00 99 1067.9
20260904093425 52 302 0.0 0.0 0.00 0.00 0.00 99 1067.9
20260904092423 52 289 0.0 0.0 0.00 0.00 0.00 99 1067.7
20260904091420 52 288 0.0 0.0 0.00 0.00 0.00 99 1067.6
20260904090417 52 289 0.0 0.0 0.00 0.00 0.00 99 1067.4
20260904085412 52 288 0.0 0.0 0.00 0.00 0.00 99 1067.7
20260904084409 52 288 0.0 0.0 0.00 0.00 0.00 99 1067.6
20260904083406 53 285 0.0 0.0 0.00 0.00 0.00 99 1067.6
20260904082402 53 281 0.0 0.0 0.00 0.00 0.00 99 1067.2
20260904081358 53 291 0.0 0.0 0.00 0.00 0.00 99 1067.1
20260904080355 53 288 0.0 0.0 0.00 0.00 0.00 99 1067.1
20260904075352 53 289 0.0 0.0 0.00 0.00 0.00 99 1067.2
20260904074351 53 288 0.0 0.0 0.00 0.00 0.00 99 1067.4
20260904073348 54 288 0.0 0.0 0.00 0.00 0.00 99 1067.2
20260904072344 54 288 0.0 0.0 0.00 0.00 0.00 99 1067.2
20260904071341 54 293 0.0 0.0 0.00 0.00 0.00 99 1066.9
20260904070340 54 293 0.0 0.0 0.00 0.00 0.00 99 1067.0
20260904065337 54 292 0.0 0.0 0.00 0.00 0.00 99 1067.1
20260904064334 54 293 0.0 0.0 0.00 0.00 0.00 99 1067.2
20260904063331 54 293 0.0 0.0 0.00 0.00 0.00 99 1067.3
20260904062328 54 289 0.0 0.0 0.00 0.00 0.00 99 1067.4
20260904061325 54 291 0.0 0.0 0.00 0.00 0.00 99 1067.8
20260904060322 54 291 0.0 0.0 0.00 0.00 0.00 99 1067.8
20260904055319 55 291 0.0 0.0 0.00 0.00 0.00 99 1067.6
20260904054316 55 298 0.0 0.0 0.00 0.00 0.00 99 1067.8
20260904053316 55 289 0.0 0.0 0.00 0.00 0.00 99 1067.8
20260904052315 55 289 0.0 0.0 0.00 0.00 0.00 99 1067.7
20260904051312 56 288 0.0 0.0 0.00 0.00 0.00 99 1068.0
20260904050310 56 289 0.0 0.0 0.00 0.00 0.00 99 1067.9
20260904045311 56 288 0.0 0.0 0.00 0.00 0.00 99 1067.8
20260904044308 56 289 0.0 0.0 0.00 0.00 0.00 99 1067.6
20260904043306 56 293 0.0 0.0 0.00 0.00 0.00 99 1067.8
20260904042305 57 293 0.0 0.0 0.00 0.00 0.00 99 1067.7
20260904041258 57 293 0.0 0.0 0.00 0.00 0.00 99 1068.0
20260904040255 57 291 0.0 0.0 0.00 0.00 0.00 99 1068.0
20260904035252 57 289 0.0 0.0 0.00 0.00 0.00 99 1068.0
20260904034247 57 289 0.0 0.0 0.00 0.00 0.00 99 1068.1
20260904033245 57 288 0.0 0.0 0.00 0.00 0.00 99 1068.0
20260904032246 58 293 0.0 0.0 0.00 0.00 0.00 99 1068.0
20260904031242 58 289 0.0 0.0 0.00 0.00 0.00 99 1068.0
20260904030239 58 288 0.0 0.0 0.00 0.00 0.00 99 1068.0
20260904025236 59 288 0.0 0.0 0.00 0.00 0.00 99 1067.9
20260904024232 59 288 0.0 0.0 0.00 0.00 0.00 99 1067.9
20260904023231 59 296 0.0 0.0 0.00 0.00 0.00 99 1067.9
20260904022227 59 288 0.0 0.0 0.00 0.00 0.00 99 1068.0
20260904021223 60 288 0.0 0.0 0.00 0.00 0.00 99 1068.2
20260904020218 60 289 0.0 0.0 0.00 0.00 0.00 99 1068.0
20260904015218 60 290 0.0 0.0 0.00 0.00 0.00 99 1068.2
20260904014218 60 303 0.9 0.9 0.00 0.00 0.00 99 1068.3
20260904013216 61 289 0.0 0.0 0.00 0.00 0.00 99 1068.4
20260904012216 61 289 0.0 0.0 0.00 0.00 0.00 99 1068.4
20260904011212 62 283 0.0 0.0 0.00 0.00 0.00 99 1068.4
20260904010209 62 290 0.0 0.0 0.00 0.00 0.00 99 1068.5
20260904005206 62 288 0.0 0.0 0.00 0.00 0.00 99 1068.3
20260904004207 62 293 0.0 0.0 0.00 0.00 0.00 99 1068.3
20260904003204 63 275 0.0 0.0 0.00 0.00 0.00 99 1068.0
20260904002201 63 289 0.0 0.0 0.00 0.00 0.00 99 1068.0
20260904001201 64 281 0.0 0.0 0.00 0.00 0.00 99 1068.0
20260904000158 64 280 0.0 0.0 0.00 0.00 0.00 99 1068.0
20260903235154 65 284 0.0 0.0 0.00 0.00 0.00 99 1068.0
20260903234150 65 275 0.0 0.0 0.00 0.00 0.00 99 1067.8
20260903233148 66 280 0.0 0.0 0.00 0.00 0.00 98 1067.6
20260903232143 67 287 0.0 0.0 0.00 0.00 0.00 95 1067.5
20260903231142 67 276 0.0 0.0 0.00 0.00 0.00 92 1067.3
20260903230137 68 280 0.0 0.0 0.00 0.00 0.00 94 1067.6
20260903225136 70 273 0.0 0.0 0.00 0.00 0.00 87 1067.6
20260903224134 70 273 0.0 0.0 0.00 0.00 0.00 83 1067.9
20260903223133 71 284 0.0 0.0 0.00 0.00 0.00 80 1067.7
20260903222133 72 293 0.9 0.9 0.00 0.00 0.00 78 1067.7
20260903221132 72 287 0.9 0.9 0.00 0.00 0.00 76 1067.5
20260903220132 72 291 0.0 0.9 0.00 0.00 0.00 75 1067.7
20260903215132 73 315 1.7 1.7 0.00 0.00 0.00 74 1067.8
20260903214126 74 318 2.6 2.6 0.00 0.00 0.00 72 1067.7
20260903213122 74 274 1.7 1.7 0.00 0.00 0.00 73 1067.5
20260903212119 74 310 1.7 1.7 0.00 0.00 0.00 72 1067.4
20260903211117 75 321 2.6 2.6 0.00 0.00 0.00 70 1067.6
20260903210114 75 319 1.7 2.6 0.00 0.00 0.00 69 1067.8
20260903205112 75 337 3.5 4.3 0.00 0.00 0.00 71 1067.8
20260903204109 75 341 2.6 2.6 0.00 0.00 0.00 71 1068.0
20260903203105 75 315 0.9 1.7 0.00 0.00 0.00 71 1067.7
20260903202102 75 307 2.6 2.6 0.00 0.00 0.00 70 1068.1
20260903201102 77 340 2.6 2.6 0.00 0.00 0.00 68 1068.1
20260903200058 76 324 1.7 2.6 0.00 0.00 0.00 71 1067.9
20260903195055 75 337 1.7 2.6 0.00 0.00 0.00 71 1067.7
20260903194051 75 318 4.3 6.1 0.00 0.00 0.00 71 1067.9
20260903193048 75 332 2.6 2.6 0.00 0.00 0.00 70 1067.9
20260903192045 75 330 2.6 2.6 0.00 0.00 0.00 71 1067.8
20260903191042 76 344 4.3 5.2 0.00 0.00 0.00 70 1068.0
20260903190041 75 296 1.7 1.7 0.00 0.00 0.00 71 1068.2
20260903185038 75 300 0.9 0.9 0.00 0.00 0.00 71 1067.9
20260903184035 75 311 0.9 1.7 0.00 0.00 0.00 71 1068.0
20260903183035 77 319 0.9 1.7 0.00 0.00 0.00 67 1067.9
20260903182030 75 247 4.3 5.2 0.00 0.00 0.00 69 1067.9
20260903181028 77 293 1.7 1.7 0.00 0.00 0.00 70 1068.0
20260903180024 76 250 2.6 4.3 0.00 0.00 0.00 72 1068.1
20260903175022 75 321 2.6 2.6 0.00 0.00 0.00 70 1068.1
20260903174017 76 330 1.7 2.6 0.00 0.00 0.00 70 1068.0
20260903173014 75 297 1.7 1.7 0.00 0.00 0.00 70 1068.1
20260903172010 75 273 0.9 0.9 0.00 0.00 0.00 75 1068.1
20260903171006 75 349 2.6 4.3 0.00 0.00 0.00 76 1068.4
20260903170006 74 247 2.6 2.6 0.00 0.00 0.00 79 1068.2
20260903165000 73 298 0.9 0.9 0.00 0.00 0.00 83 1068.4
20260903163954 73 297 1.7 1.7 0.00 0.00 0.00 88 1068.4
20260903162952 72 263 4.3 5.2 0.00 0.00 0.00 89 1068.7
20260903161950 72 260 6.1 7.0 0.00 0.00 0.00 92 1068.8
20260903160947 71 300 0.9 0.9 0.00 0.00 0.00 94 1068.8